TimeEST,TemperatureF,Dew PointF,Humidity,Sea Level PressureIn,VisibilityMPH,Wind Direction,Wind SpeedMPH,Gust SpeedMPH,PrecipitationIn,Events,Conditions,WindDirDegrees,DateUTC
12:11 AM,34.0,34.0,100,29.92,0.5,Calm,Calm,-,N/A,Fog,Fog,0,2014-01-15 05:11:00
12:29 AM,34.0,34.0,100,29.92,0.5,Calm,Calm,-,N/A,Fog,Fog,0,2014-01-15 05:29:00
12:39 AM,33.1,33.1,100,29.92,0.2,Calm,Calm,-,N/A,Fog,Fog,0,2014-01-15 05:39:00
12:54 AM,34.0,34.0,100,29.94,0.2,Calm,Calm,-,N/A,Fog,Fog,0,2014-01-15 05:54:00
1:01 AM,34.0,34.0,100,29.93,0.5,Calm,Calm,-,N/A,Fog,Fog,0,2014-01-15 06:01:00
1:08 AM,35.1,35.1,100,29.93,0.2,Calm,Calm,-,N/A,Fog,Fog,0,2014-01-15 06:08:00
1:28 AM,35.1,35.1,100,29.93,0.2,Calm,Calm,-,N/A,Fog,Fog,0,2014-01-15 06:28:00
1:54 AM,35.1,35.1,100,29.94,0.2,ESE,4.6,-,N/A,Fog,Fog,120,2014-01-15 06:54:00
2:02 AM,35.1,35.1,100,29.93,0.2,SE,6.9,-,N/A,Fog,Fog,130,2014-01-15 07:02:00
2:39 AM,36.0,36.0,100,29.94,0.2,ESE,5.8,-,N/A,Fog,Fog,120,2014-01-15 07:39:00
2:54 AM,36.0,36.0,100,29.94,0.2,ESE,5.8,-,N/A,Fog,Fog,120,2014-01-15 07:54:00
3:54 AM,36.0,36.0,100,29.94,0.2,SE,4.6,-,N/A,Fog,Fog,140,2014-01-15 08:54:00
4:11 AM,36.0,36.0,100,29.94,0.2,Calm,Calm,-,N/A,Fog,Fog,0,2014-01-15 09:11:00
4:54 AM,37.0,37.0,100,29.95,0.2,Calm,Calm,-,N/A,Fog,Fog,0,2014-01-15 09:54:00
5:42 AM,37.0,37.0,100,29.93,0.2,Calm,Calm,-,N/A,Fog,Fog,0,2014-01-15 10:42:00
5:54 AM,37.0,37.0,100,29.94,0.2,South,3.5,-,N/A,Fog,Fog,170,2014-01-15 10:54:00
6:02 AM,37.0,37.0,100,29.93,0.2,South,3.5,-,N/A,Fog,Fog,190,2014-01-15 11:02:00
6:54 AM,37.0,37.0,100,29.96,0.2,Calm,Calm,-,N/A,Fog,Fog,0,2014-01-15 11:54:00
7:16 AM,37.0,37.0,100,29.96,0.2,West,3.5,-,N/A,Fog,Fog,270,2014-01-15 12:16:00
7:54 AM,37.0,37.0,100,29.97,0.2,Calm,Calm,-,N/A,Fog,Fog,0,2014-01-15 12:54:00
8:54 AM,37.0,37.0,100,29.98,0.2,SE,6.9,-,N/A,Fog,Fog,130,2014-01-15 13:54:00
9:17 AM,39.0,39.0,100,29.98,0.2,South,6.9,-,N/A,Fog,Fog,180,2014-01-15 14:17:00
9:54 AM,39.0,39.0,100,29.99,0.2,Variable,3.5,-,N/A,Fog,Fog,0,2014-01-15 14:54:00
10:54 AM,37.0,37.0,100,29.98,0.2,SE,6.9,-,N/A,Fog,Fog,130,2014-01-15 15:54:00
11:54 AM,37.0,37.0,100,29.95,0.2,SE,9.2,-,N/A,Fog,Fog,130,2014-01-15 16:54:00
12:54 PM,37.9,37.9,100,29.91,0.2,SE,5.8,-,N/A,Fog,Fog,130,2014-01-15 17:54:00
1:54 PM,39.9,39.9,100,29.90,0.2,SE,4.6,-,N/A,Fog,Fog,130,2014-01-15 18:54:00
2:17 PM,41.0,41.0,100,29.89,0.5,Calm,Calm,-,N/A,Fog,Fog,0,2014-01-15 19:17:00
2:29 PM,41.0,41.0,100,29.89,2.0,East,3.5,-,N/A,,Overcast,100,2014-01-15 19:29:00
2:41 PM,42.1,42.1,100,29.89,3.0,ENE,3.5,-,N/A,,Overcast,60,2014-01-15 19:41:00
2:54 PM,42.1,42.1,100,29.90,3.0,NNE,3.5,-,N/A,,Overcast,20,2014-01-15 19:54:00
3:34 PM,39.9,39.9,100,29.89,5.0,North,8.1,-,N/A,,Overcast,360,2014-01-15 20:34:00
3:54 PM,41.0,39.9,96,29.89,5.0,North,5.8,-,N/A,,Overcast,360,2014-01-15 20:54:00
4:17 PM,41.0,39.9,96,29.89,2.5,NNW,5.8,-,0.01,Rain,Light Rain,340,2014-01-15 21:17:00
4:26 PM,41.0,39.9,96,29.89,3.0,NNW,6.9,-,0.01,Rain,Light Rain,340,2014-01-15 21:26:00
4:35 PM,41.0,39.9,96,29.89,1.8,NNW,4.6,-,0.02,Rain,Light Rain,330,2014-01-15 21:35:00
4:54 PM,41.0,39.9,96,29.90,1.8,West,5.8,-,0.06,Rain,Rain,280,2014-01-15 21:54:00
5:19 PM,41.0,39.9,96,29.89,2.5,NNW,6.9,-,0.11,Rain,Light Rain,330,2014-01-15 22:19:00
5:51 PM,42.8,39.2,87,29.90,5.0,North,8.1,-,0.14,Rain,Light Rain,350,2014-01-15 22:51:00
5:54 PM,42.1,39.9,92,29.91,5.0,North,8.1,-,0.15,Rain,Light Rain,360,2014-01-15 22:54:00
6:08 PM,41.0,39.9,96,29.91,4.0,NNW,4.6,-,0.01,Rain,Light Rain,330,2014-01-15 23:08:00
6:54 PM,41.0,39.9,96,29.92,5.0,NW,5.8,-,0.04,Rain,Light Rain,320,2014-01-15 23:54:00
7:54 PM,42.1,37.9,85,29.93,6.0,North,8.1,-,0.02,Rain,Light Rain,360,2014-01-16 00:54:00
8:54 PM,41.0,35.1,79,29.94,10.0,NNW,9.2,-,0.01,,Overcast,340,2014-01-16 01:54:00
9:54 PM,39.9,33.1,77,29.95,10.0,NNW,5.8,-,0.00,Rain,Light Rain,340,2014-01-16 02:54:00
10:54 PM,39.9,30.9,70,29.94,10.0,NW,6.9,-,0.00,,Overcast,310,2014-01-16 03:54:00
11:54 PM,39.0,28.9,67,29.94,10.0,North,16.1,23.0,N/A,,Overcast,350,2014-01-16 04:54:00